TimeCDT,TemperatureF,Dew PointF,Humidity,Sea Level PressureIn,VisibilityMPH,Wind Direction,Wind SpeedMPH,Gust SpeedMPH,PrecipitationIn,Events,Conditions,WindDirDegrees,DateUTC
12:15 AM,71.6,62.6,73,30.20,10.0,SSE,5.8,-,N/A,,Clear,150,2013-08-25 05:15:00
12:35 AM,71.6,62.6,73,30.20,10.0,SE,5.8,-,N/A,,Clear,140,2013-08-25 05:35:00
12:55 AM,69.8,62.6,78,30.20,10.0,SE,5.8,-,N/A,,Clear,130,2013-08-25 05:55:00
1:15 AM,69.8,64.4,83,30.20,10.0,SE,4.6,-,N/A,,Clear,130,2013-08-25 06:15:00
1:35 AM,69.8,64.4,83,30.19,10.0,SE,6.9,-,N/A,,Clear,130,2013-08-25 06:35:00
1:55 AM,69.8,64.4,83,30.20,10.0,SE,5.8,-,N/A,,Clear,130,2013-08-25 06:55:00
2:15 AM,71.6,64.4,78,30.20,10.0,SSE,8.1,-,N/A,,Clear,150,2013-08-25 07:15:00
2:35 AM,71.6,64.4,78,30.20,10.0,SSE,8.1,-,N/A,,Clear,150,2013-08-25 07:35:00
2:55 AM,71.6,64.4,78,30.20,10.0,SSE,9.2,-,N/A,,Clear,150,2013-08-25 07:55:00
3:15 AM,69.8,64.4,83,30.21,10.0,SE,8.1,-,N/A,,Clear,140,2013-08-25 08:15:00
3:35 AM,69.8,66.2,88,30.21,10.0,SE,6.9,-,N/A,,Clear,140,2013-08-25 08:35:00
3:55 AM,69.8,66.2,88,30.22,10.0,SE,8.1,-,N/A,,Clear,140,2013-08-25 08:55:00
4:15 AM,69.8,66.2,88,30.22,10.0,SE,5.8,-,N/A,,Clear,130,2013-08-25 09:15:00
4:35 AM,68.0,64.4,88,30.23,10.0,SE,5.8,-,N/A,,Clear,130,2013-08-25 09:35:00
4:55 AM,68.0,64.4,88,30.23,7.0,ESE,4.6,-,N/A,,Clear,120,2013-08-25 09:55:00
5:15 AM,68.0,64.4,88,30.24,7.0,SE,3.5,-,N/A,,Clear,130,2013-08-25 10:15:00
5:35 AM,68.0,64.4,88,30.24,7.0,SE,4.6,-,N/A,,Clear,130,2013-08-25 10:35:00
5:55 AM,66.2,64.4,94,30.25,7.0,SE,5.8,-,N/A,,Clear,130,2013-08-25 10:55:00
6:15 AM,66.2,64.4,94,30.25,7.0,SE,5.8,-,N/A,,Clear,130,2013-08-25 11:15:00
6:35 AM,64.4,64.4,100,30.26,3.0,ESE,4.6,-,N/A,,Clear,120,2013-08-25 11:35:00
6:55 AM,64.4,64.4,100,30.27,5.0,SE,4.6,-,N/A,,Clear,130,2013-08-25 11:55:00
7:15 AM,66.2,64.4,94,30.27,4.0,SE,5.8,-,N/A,,Clear,140,2013-08-25 12:15:00
7:35 AM,68.0,66.2,94,30.27,7.0,SE,4.6,-,N/A,,Clear,130,2013-08-25 12:35:00
7:55 AM,69.8,68.0,94,30.27,7.0,SE,4.6,-,N/A,,Clear,130,2013-08-25 12:55:00
8:15 AM,71.6,68.0,88,30.27,10.0,SE,6.9,-,N/A,,Clear,130,2013-08-25 13:15:00
8:35 AM,73.4,68.0,83,30.27,10.0,SE,8.1,-,N/A,,Clear,130,2013-08-25 13:35:00
8:55 AM,73.4,68.0,83,30.27,10.0,SE,9.2,-,N/A,,Clear,130,2013-08-25 13:55:00
9:15 AM,77.0,69.8,78,30.27,10.0,SE,6.9,-,N/A,,Clear,130,2013-08-25 14:15:00
9:35 AM,78.8,69.8,74,30.26,10.0,ESE,5.8,-,N/A,,Clear,120,2013-08-25 14:35:00
9:55 AM,78.8,69.8,74,30.26,10.0,SE,8.1,-,N/A,,Clear,130,2013-08-25 14:55:00
10:15 AM,80.6,69.8,70,30.26,10.0,SE,8.1,-,N/A,,Clear,130,2013-08-25 15:15:00
10:35 AM,80.6,69.8,70,30.26,10.0,SSE,8.1,-,N/A,,Clear,150,2013-08-25 15:35:00
10:55 AM,82.4,71.6,70,30.26,10.0,ESE,8.1,-,N/A,,Clear,110,2013-08-25 15:55:00
11:15 AM,82.4,69.8,66,30.26,10.0,Calm,Calm,-,N/A,,Clear,0,2013-08-25 16:15:00
11:35 AM,82.4,69.8,66,30.25,10.0,SE,3.5,-,N/A,,Scattered Clouds,140,2013-08-25 16:35:00
11:55 AM,86.0,69.8,58,30.25,10.0,SSW,5.8,-,N/A,,Scattered Clouds,200,2013-08-25 16:55:00
12:15 PM,86.0,68.0,55,30.24,10.0,West,3.5,-,N/A,,Clear,260,2013-08-25 17:15:00
12:35 PM,87.8,68.0,52,30.24,10.0,SE,4.6,-,N/A,,Scattered Clouds,140,2013-08-25 17:35:00
12:55 PM,86.0,68.0,55,30.23,10.0,ENE,4.6,-,N/A,,Mostly Cloudy,60,2013-08-25 17:55:00
1:15 PM,87.8,68.0,52,30.23,10.0,South,3.5,-,N/A,,Mostly Cloudy,180,2013-08-25 18:15:00
1:35 PM,87.8,68.0,52,30.23,10.0,Calm,Calm,-,N/A,,Scattered Clouds,0,2013-08-25 18:35:00
1:55 PM,87.8,68.0,52,30.22,10.0,SSE,3.5,-,N/A,,Scattered Clouds,150,2013-08-25 18:55:00
2:15 PM,87.8,64.4,46,30.22,10.0,ESE,3.5,-,N/A,,Scattered Clouds,120,2013-08-25 19:15:00
2:35 PM,87.8,64.4,46,30.21,10.0,Calm,Calm,-,N/A,,Clear,0,2013-08-25 19:35:00
2:55 PM,89.6,64.4,43,30.21,10.0,East,3.5,-,N/A,,Scattered Clouds,100,2013-08-25 19:55:00
3:15 PM,89.6,66.2,46,30.20,10.0,ESE,6.9,-,N/A,,Scattered Clouds,120,2013-08-25 20:15:00
3:35 PM,89.6,62.6,40,30.19,10.0,ESE,8.1,-,N/A,,Scattered Clouds,110,2013-08-25 20:35:00
3:55 PM,89.6,64.4,43,30.19,10.0,SSE,6.9,-,N/A,,Clear,150,2013-08-25 20:55:00
4:15 PM,89.6,64.4,43,30.19,10.0,SE,4.6,-,N/A,,Scattered Clouds,130,2013-08-25 21:15:00
4:35 PM,87.8,64.4,46,30.19,10.0,Calm,Calm,-,N/A,,Scattered Clouds,0,2013-08-25 21:35:00
4:55 PM,89.6,66.2,46,30.19,10.0,East,5.8,-,N/A,,Scattered Clouds,90,2013-08-25 21:55:00
5:15 PM,87.8,66.2,49,30.18,10.0,ESE,6.9,-,N/A,,Clear,110,2013-08-25 22:15:00
5:35 PM,87.8,68.0,52,30.19,10.0,East,5.8,-,N/A,,Scattered Clouds,100,2013-08-25 22:35:00
5:55 PM,87.8,66.2,49,30.19,10.0,ESE,5.8,-,N/A,,Scattered Clouds,110,2013-08-25 22:55:00
6:15 PM,87.8,66.2,49,30.19,10.0,ESE,5.8,-,N/A,,Clear,110,2013-08-25 23:15:00
6:35 PM,86.0,68.0,55,30.19,10.0,ESE,5.8,-,N/A,,Clear,110,2013-08-25 23:35:00
6:55 PM,84.2,68.0,58,30.19,10.0,ESE,3.5,-,N/A,,Clear,110,2013-08-25 23:55:00
7:15 PM,82.4,69.8,66,30.19,10.0,Calm,Calm,-,N/A,,Clear,0,2013-08-26 00:15:00
7:35 PM,80.6,69.8,70,30.19,10.0,Calm,Calm,-,N/A,,Clear,0,2013-08-26 00:35:00
7:55 PM,80.6,69.8,70,30.19,10.0,Calm,Calm,-,N/A,,Clear,0,2013-08-26 00:55:00
8:15 PM,78.8,69.8,74,30.19,10.0,ESE,3.5,-,N/A,,Clear,120,2013-08-26 01:15:00
8:35 PM,77.0,69.8,78,30.19,10.0,ESE,3.5,-,N/A,,Clear,120,2013-08-26 01:35:00
8:55 PM,77.0,69.8,78,30.20,10.0,ESE,3.5,-,N/A,,Clear,120,2013-08-26 01:55:00
9:15 PM,75.2,68.0,78,30.21,10.0,SE,3.5,-,N/A,,Clear,130,2013-08-26 02:15:00
9:35 PM,75.2,69.8,83,30.21,10.0,SE,3.5,-,N/A,,Clear,140,2013-08-26 02:35:00
9:55 PM,75.2,66.2,73,30.21,10.0,SE,4.6,-,N/A,,Clear,140,2013-08-26 02:55:00
10:15 PM,75.2,66.2,73,30.22,10.0,SE,4.6,-,N/A,,Clear,140,2013-08-26 03:15:00
10:35 PM,73.4,66.2,78,30.22,10.0,SE,5.8,-,N/A,,Clear,140,2013-08-26 03:35:00
10:55 PM,73.4,68.0,83,30.22,10.0,SSE,5.8,-,N/A,,Clear,150,2013-08-26 03:55:00
11:15 PM,73.4,68.0,83,30.22,10.0,SSE,4.6,-,N/A,,Clear,150,2013-08-26 04:15:00
11:35 PM,73.4,66.2,78,30.22,10.0,SSE,4.6,-,N/A,,Clear,150,2013-08-26 04:35:00
11:55 PM,71.6,66.2,83,30.22,10.0,SE,5.8,-,N/A,,Clear,140,2013-08-26 04:55:00